Visalia, CA

6:52 AM PDT on October 23, 2019 (GMT -0700)
Visalia Municipal

Weather History for KVIS - August, 2019

Change the Weather History Date:

Tuesday, August 27, 2019

  Actual Average Record
Temperature  
Mean Temperature 85 °F -  
Max Temperature 100 °F 91 °F 111 °F (1931)
Min Temperature 70 °F 61 °F 50 °F (1954)
Cooling Degree Days 20    
Growing Degree Days 35 (Base 50)    
Moisture  
Dew Point 62 °F    
Average Humidity 49    
Maximum Humidity 81    
Minimum Humidity 29    
Precipitation  
Precipitation 0.00 in - - ()
Sea Level Pressure  
Sea Level Pressure 29.78 in    
Wind  
Wind Speed 3 mph (West)    
Max Wind Speed 10 mph    
Max Gust Speed -    
Visibility 10 miles    
Events      
Averages and records for this station are not official NWS values.
T = Trace of Precipitation, MM = Missing Value Source: NWS Daily Summary

Daily Weather History Graph

Daily Weather History Graph

Search for Another Location

Airport or City:

Astronomy

Aug. 27, 2019 Rise Set
Actual Time 6:24 AM PDT 7:32 PM PDT
Civil Twilight 5:58 AM PDT 7:59 PM PDT
Nautical Twilight 5:26 AM PDT 8:30 PM PDT
Astronomical Twilight 4:53 AM PDT 9:03 PM PDT
Moon 3:01 AM PDT (8/27) 5:52 PM PDT (8/27)
Length of Visible Light 14h 00m
Length of Day
13h 07m
Waning Crescent, 10% of the Moon is Illuminated
Aug 27
Waning Crescent
Aug 30
New
Sep 5
First Quarter
Sep 13
Full
Sep 21
Last Quarter

Hourly Weather History & Observations

Time (PDT) Temp. Heat Index Dew Point Humidity Pressure Visibility Wind Dir Wind Speed Gust Speed Precip Events Conditions
12:56 AM 77.0 °F - 66.9 °F 71% 29.81 in 10.0 mi Calm Calm - N/A   Clear
1:56 AM 78.1 °F - 64.9 °F 64% 29.80 in 10.0 mi WNW 4.6 mph - N/A   Clear
2:56 AM 75.0 °F - 62.1 °F 64% 29.79 in 10.0 mi WNW 3.5 mph - N/A   Clear
3:56 AM 75.0 °F - 61.0 °F 62% 29.79 in 10.0 mi East 3.5 mph - N/A   Clear
4:56 AM 72.0 °F - 63.0 °F 73% 29.80 in 10.0 mi Calm Calm - N/A   Clear
5:56 AM 70.0 °F - 64.0 °F 81% 29.80 in 10.0 mi Calm Calm - N/A   Clear
6:56 AM 71.1 °F - 64.0 °F 78% 29.82 in 10.0 mi SW 3.5 mph - N/A   Clear
7:56 AM 73.0 °F - 63.0 °F 71% 29.83 in 10.0 mi Calm Calm - N/A   Clear
8:56 AM 78.1 °F - 60.1 °F 54% 29.83 in 9.0 mi Calm Calm - N/A   Clear
9:56 AM 82.9 °F 83.7 °F 62.1 °F 49% 29.83 in 10.0 mi South 4.6 mph - N/A   Clear
10:56 AM 86.0 °F 86.3 °F 62.1 °F 44% 29.83 in 10.0 mi SSW 4.6 mph - N/A   Clear
11:56 AM 89.1 °F 91.0 °F 64.9 °F 45% 29.82 in 9.0 mi South 4.6 mph - N/A   Clear
12:56 PM 93.0 °F 95.0 °F 64.9 °F 39% 29.79 in 10.0 mi Variable 4.6 mph - N/A   Clear
1:56 PM 97.0 °F 99.9 °F 64.9 °F 35% 29.78 in 10.0 mi SW 6.9 mph - N/A   Clear
2:56 PM 98.1 °F 99.1 °F 62.1 °F 30% 29.75 in 10.0 mi West 8.1 mph - N/A   Clear
3:56 PM 100.0 °F 103.0 °F 64.0 °F 31% 29.73 in 10.0 mi West 10.4 mph - N/A   Clear
4:56 PM 100.9 °F 103.3 °F 63.0 °F 29% 29.72 in 10.0 mi West 9.2 mph - N/A   Clear
5:56 PM 99.0 °F 100.5 °F 62.1 °F 30% 29.72 in 10.0 mi West 8.1 mph - N/A   Clear
6:56 PM 96.1 °F 96.9 °F 62.1 °F 32% 29.72 in 10.0 mi WNW 6.9 mph - N/A   Clear
7:56 PM 91.9 °F 92.5 °F 62.1 °F 37% 29.73 in 10.0 mi WNW 5.8 mph - N/A   Clear
8:56 PM 89.1 °F 88.8 °F 60.1 °F 38% 29.76 in 10.0 mi West 4.6 mph - N/A   Clear
9:56 PM 86.0 °F 86.1 °F 61.0 °F 43% 29.78 in 10.0 mi West 3.5 mph - N/A   Clear
10:56 PM 84.0 °F 83.5 °F 57.9 °F 41% 29.79 in 10.0 mi NW 6.9 mph - N/A   Clear
11:56 PM 82.9 °F 82.4 °F 57.0 °F 41% 29.80 in 10.0 mi NW 6.9 mph - N/A   Clear